Wind_Speed
54 53 52 52 52 52 53 54 55 56 57 58 59 60 62 63 64 65 66 66 67 67 67 67 68 68 68 69 70 71 73 74 73 72 72 72 71 71 70 70 71 72 73 73 72 71 71 71 71 72 71 71 70 68 67 65 64 63 62 61 60 57 55 52 50 52 56 58 57 59 61 60 61 63 62 62 61 60 58 58 59 59 60 60 60
56 57 56 56 55 55 55 56 57 58 59 60 61 62 63 64 65 65 66 66 67 67 68 68 69 70 71 72 73 74 74 73 72 71 71 72 71 70 69 70 72 73 73 72 71 71 71 72 72 72 72 71 70 68 66 65 65 65 64 64 63 62 60 58 55 53 55 59 59 58 60 61 61 63 63 63 64 64 63 62 62 61 62 62 62
55 56 57 57 58 58 58 59 59 60 61 61 62 62 63 64 64 65 65 66 67 68 69 71 72 73 74 74 74 73 71 71 71 71 71 70 69 69 70 72 73 74 73 72 71 71 72 73 73 72 72 71 70 68 67 67 66 66 66 66 66 65 64 62 60 57 56 59 61 61 60 61 62 63 63 63 64 66 66 66 64 64 64 64 64
56 56 57 58 59 59 60 60 61 62 63 63 64 64 65 65 66 67 68 69 70 71 72 73 74 74 74 73 71 70 70 70 70 70 69 69 69 71 73 74 75 74 73 72 72 73 73 73 73 72 71 70 69 70 69 69 69 69 69 69 68 68 68 66 64 61 59 59 61 63 63 62 63 64 64 63 64 66 68 68 68 66 66 66 66
57 58 58 59 60 61 62 62 63 63 64 64 65 66 66 67 68 69 70 71 72 72 72 72 72 71 70 69 69 69 69 69 69 69 70 71 72 74 75 75 74 73 73 73 74 74 74 74 73 72 71 70 70 71 71 70 70 70 69 69 69 69 69 69 68 65 62 60 61 63 64 64 64 65 66 64 64 66 67 69 69 69 68 69 68
59 60 61 61 62 62 63 64 65 65 65 66 66 67 67 68 68 69 69 70 69 69 69 69 68 67 67 67 67 68 68 68 70 72 73 73 74 74 74 73 73 73 74 75 75 75 75 75 74 73 72 72 72 71 71 70 70 70 69 69 69 69 69 68 67 66 65 63 62 62 64 65 65 66 68 67 66 66 67 68 70 71 71 70 70
61 62 63 64 64 64 64 65 66 67 68 68 68 68 68 69 68 68 68 68 67 66 66 66 66 66 66 67 67 68 69 70 72 73 73 73 73 72 72 73 74 74 75 76 77 77 77 76 75 74 73 73 73 72 71 71 70 70 70 69 69 68 67 66 65 65 64 64 65 65 65 66 66 66 68 69 69 68 68 68 69 71 72 71 72
62 63 64 64 64 64 64 65 65 66 67 67 68 67 67 67 66 65 65 65 64 64 64 63 64 65 65 66 67 68 69 70 71 72 72 72 72 72 73 74 75 76 77 78 79 79 78 77 76 76 75 75 74 73 72 72 72 72 71 69 67 65 64 64 63 64 64 65 66 67 68 69 70 69 69 70 70 70 70 69 69 72 73 72 72
60 60 61 61 62 63 63 64 64 63 63 63 63 63 63 62 62 61 60 60 60 61 61 61 61 62 62 64 64 65 66 67 68 70 71 72 73 74 76 76 78 79 80 81 81 80 79 78 77 77 77 76 76 75 75 74 74 72 69 67 65 64 63 63 63 64 65 66 68 69 70 71 73 73 72 71 70 71 71 70 69 71 73 73 73
56 57 58 59 60 60 61 61 61 60 59 58 58 58 58 58 58 57 57 57 57 57 58 58 59 60 61 62 63 64 65 67 69 71 72 74 76 77 77 79 80 81 82 82 81 80 79 79 79 79 79 79 79 79 79 77 73 70 66 64 62 62 62 63 64 65 66 67 69 70 72 73 74 74 73 73 71 70 70 70 69 70 72 73 74
53 53 54 55 55 55 55 55 55 55 54 54 53 53 53 53 54 54 54 55 55 56 56 57 58 59 60 61 62 64 66 68 70 72 74 76 77 78 80 81 82 83 82 82 80 80 79 79 80 80 81 82 83 82 80 76 72 68 66 64 63 62 62 63 64 66 67 68 70 72 73 74 76 76 76 75 74 72 70 68 68 68 70 71 74
48 49 48 48 48 48 49 50 50 50 51 50 50 50 50 50 51 51 52 53 54 54 55 57 58 59 60 62 64 67 69 71 73 74 76 77 79 80 82 83 84 84 83 82 81 80 80 80 81 82 83 84 83 81 78 74 71 69 68 68 67 67 67 67 66 67 67 67 68 70 71 72 74 75 76 76 75 73 71 69 68 67 67 68 71
45 44 44 45 45 46 47 48 48 49 49 50 50 50 50 50 51 52 53 53 54 55 57 59 61 62 64 66 68 70 72 73 75 76 78 80 81 83 84 85 86 85 83 81 80 80 80 81 82 83 84 84 82 78 75 73 71 71 71 72 73 73 72 70 69 67 65 63 62 63 64 65 66 69 71 72 71 71 69 68 68 67 66 66 67
44 43 44 45 47 48 49 49 49 48 48 49 49 50 51 52 53 54 55 56 57 59 61 63 64 66 68 69 71 72 74 75 77 78 80 82 84 85 86 87 86 84 82 80 80 80 81 82 84 85 84 82 79 76 75 74 73 74 75 76 76 74 72 69 67 65 63 60 58 57 56 57 58 61 64 65 64 65 65 64 64 63 63 63 63
46 46 47 49 51 51 51 50 49 48 48 48 49 50 51 53 54 56 57 59 60 62 64 65 66 68 69 71 72 74 75 78 80 82 83 84 86 87 87 85 83 81 80 80 80 81 82 84 85 84 82 79 77 75 75 75 76 76 76 75 74 72 69 66 63 61 59 57 55 54 53 52 53 55 57 59 58 59 59 59 59 57 57 58 59
49 50 51 53 54 54 52 51 50 49 49 49 50 52 53 55 56 58 59 61 63 64 66 67 68 70 71 73 75 77 79 81 83 84 85 86 87 86 84 81 80 79 79 80 81 82 83 84 83 81 78 77 76 75 75 77 77 77 75 73 70 68 66 64 60 57 55 53 51 49 48 47 48 50 52 54 55 54 54 53 52 51 51 52 54
50 52 54 56 56 55 53 51 49 49 50 51 53 54 56 57 58 60 61 64 66 67 68 69 71 72 74 76 78 80 81 83 84 85 86 85 84 82 79 78 78 78 79 80 82 83 84 83 80 77 76 75 75 76 77 77 77 75 72 70 67 65 64 61 59 55 53 50 47 45 43 41 41 43 46 49 51 52 50 47 45 46 47 48 50
50 52 55 57 57 55 54 52 51 51 52 53 53 54 56 58 60 62 65 67 69 69 70 72 73 75 76 78 80 81 83 84 85 84 83 81 79 77 76 76 77 78 80 81 82 83 81 79 77 75 75 75 75 77 77 76 74 71 69 66 64 62 60 59 57 55 53 50 47 43 40 37 36 36 38 42 45 47 47 43 40 40 43 46 48
50 52 52 52 52 52 51 52 52 53 53 54 55 57 59 61 63 65 68 69 70 70 72 74 75 77 79 80 82 83 83 83 82 80 78 76 75 74 75 76 78 79 81 82 81 80 77 76 75 74 75 76 77 76 75 73 70 68 65 62 60 58 57 57 56 54 52 50 47 43 39 36 34 32 32 34 38 40 41 40 38 37 40 44 46
54 54 53 53 52 52 53 54 55 56 57 58 60 61 62 64 65 67 68 69 70 72 74 76 77 79 80 81 82 82 81 79 77 75 74 73 73 74 75 77 79 80 81 80 78 76 75 74 74 75 76 77 77 75 73 70 67 64 61 59 57 56 55 55 53 51 49 48 46 42 38 35 32 30 28 29 30 33 34 35 35 35 37 41 44
60 60 60 60 59 59 59 59 60 60 61 62 63 63 64 65 67 68 69 71 73 75 76 77 78 80 81 80 80 78 77 75 73 72 72 72 73 74 76 78 79 79 78 76 75 74 74 74 75 77 78 77 75 73 70 67 64 61 58 56 54 53 52 52 51 48 46 45 44 41 38 34 30 28 26 25 25 27 28 30 32 32 34 38 41
60 61 61 62 62 62 62 62 63 63 63 64 64 65 66 67 68 70 71 73 74 75 76 78 79 79 79 78 76 75 73 71 70 70 71 72 73 75 77 78 78 76 75 74 73 73 74 75 77 78 77 75 72 69 66 63 60 58 56 54 53 51 50 50 49 47 45 42 41 39 36 33 29 26 24 23 22 22 23 26 28 29 31 34 37
59 60 60 61 62 63 63 64 64 64 64 65 66 67 68 69 70 72 73 74 74 75 76 77 77 77 76 75 73 71 70 69 69 70 71 72 74 76 76 75 74 73 73 73 73 74 75 77 77 76 74 71 68 65 62 60 58 56 54 53 51 49 49 48 48 46 43 41 38 37 34 31 28 25 23 21 20 19 20 22 25 27 28 31 34
59 59 60 61 62 62 63 63 64 64 65 66 67 68 69 70 71 72 73 73 74 75 76 76 76 75 74 72 70 69 68 68 69 70 71 73 74 74 73 72 72 72 72 72 73 75 77 77 75 73 70 67 64 61 59 56 55 53 52 50 49 48 47 46 46 44 42 40 37 35 33 30 27 24 22 20 18 17 18 20 23 25 27 29 32
59 60 61 62 62 63 63 64 65 66 66 67 68 69 70 71 71 72 72 73 74 74 74 74 74 73 72 70 69 68 67 68 69 70 72 73 73 71 71 70 71 71 72 73 74 76 76 75 72 70 66 63 60 58 56 54 52 50 49 48 46 45 44 43 43 43 41 39 37 35 32 29 26 23 21 20 18 16 17 18 20 23 25 27 30
62 62 62 63 63 63 64 65 66 67 67 68 69 70 70 71 71 71 72 73 73 73 73 73 73 71 70 68 67 66 67 68 69 71 72 71 70 69 70 70 70 71 72 73 75 75 74 71 68 65 62 59 57 56 54 52 50 48 46 45 43 42 41 40 40 40 39 36 34 33 30 28 25 23 20 18 17 16 16 16 18 21 25 27 29
62 62 63 63 64 64 65 66 67 68 68 69 70 70 70 70 70 71 71 72 72 72 72 72 71 69 68 66 65 66 67 68 70 70 69 68 68 69 69 69 69 71 72 74 74 73 70 67 64 61 58 56 54 53 52 50 48 46 44 43 41 39 37 37 37 37 36 33 30 29 28 26 24 22 20 17 16 15 15 15 17 21 25 28 30
61 61 62 63 64 65 66 66 67 68 68 69 69 69 69 69 70 70 70 71 71 72 71 70 69 67 65 64 64 66 67 68 68 68 67 67 68 68 68 68 69 71 73 73 72 70 67 64 61 58 56 54 52 50 48 47 46 45 43 41 39 37 36 36 36 36 35 33 30 27 25 24 23 21 19 17 15 15 15 15 17 21 25 28 31
60 61 62 63 64 64 65 66 67 67 68 68 68 68 69 69 69 69 70 70 71 70 69 67 65 64 63 63 64 66 66 67 66 65 66 67 67 67 67 68 70 72 72 71 69 66 63 60 58 56 54 52 50 48 47 45 44 43 42 39 37 36 35 35 35 36 35 34 31 28 25 23 21 20 19 17 15 15 15 16 17 20 23 27 31
61 61 62 62 63 64 65 66 66 66 66 67 67 68 68 68 68 69 69 70 69 68 66 63 62 61 62 63 65 65 65 64 64 65 66 66 66 65 67 69 71 71 70 69 66 63 60 58 56 54 52 51 49 47 46 44 43 41 40 38 37 36 34 33 33 34 34 34 32 29 26 23 20 18 17 17 16 15 15 16 18 20 23 26 29
60 61 61 61 62 63 64 64 64 65 65 66 66 67 67 67 68 69 69 68 66 64 61 60 60 61 62 63 63 63 62 62 63 65 65 65 64 65 68 70 70 70 69 66 63 60 57 55 53 52 50 49 47 46 45 44 41 39 37 36 36 35 35 34 32 32 33 33 32 29 26 23 21 18 16 16 16 15 15 16 18 21 23 25 29
59 59 59 60 61 62 62 62 63 64 64 65 66 66 67 67 68 67 66 64 61 58 58 58 60 61 62 62 61 60 60 62 64 65 64 63 64 66 69 70 70 69 66 63 60 57 55 53 51 49 48 46 45 45 44 43 41 39 36 35 35 35 35 34 33 32 31 31 31 30 27 24 21 18 16 14 15 15 15 16 18 21 23 25 28
58 58 59 59 60 61 61 62 63 63 64 65 65 66 66 66 65 63 60 58 56 56 57 59 60 61 61 60 59 59 61 62 64 63 62 62 65 67 69 69 69 67 64 61 58 55 53 51 49 47 46 45 43 42 41 40 40 38 36 34 34 34 33 33 33 32 31 30 30 29 28 25 21 19 16 14 13 15 16 16 17 20 23 26 28
56 57 58 58 59 60 61 62 63 63 64 65 65 65 64 63 60 57 55 54 55 57 58 59 60 60 59 58 58 59 61 62 62 61 61 63 66 68 69 69 68 65 62 58 56 53 51 49 47 46 45 44 43 41 39 37 37 37 37 35 34 33 32 32 31 31 31 31 30 29 29 27 24 20 17 15 13 13 14 16 18 19 22 26 28
56 56 57 58 59 60 61 62 62 63 64 64 63 61 59 56 53 53 53 55 56 57 58 58 59 58 57 57 58 60 61 61 61 60 62 64 67 69 69 69 66 63 60 56 53 51 49 47 45 45 44 43 42 40 38 36 35 35 36 36 35 34 33 32 31 30 30 31 30 30 29 28 26 23 20 17 14 12 12 15 17 19 22 24 28
54 55 56 58 59 60 60 61 62 62 62 60 57 54 52 51 51 52 54 55 56 57 57 57 57 56 56 57 58 59 60 60 60 60 63 65 67 69 69 68 65 62 58 55 52 49 47 45 44 43 43 42 41 40 38 36 34 34 34 35 36 36 35 34 33 31 30 29 29 29 28 27 26 24 21 19 16 14 13 13 15 18 21 23 26
55 56 58 59 59 59 60 60 59 58 55 53 50 49 50 50 52 53 54 56 56 56 56 55 55 55 55 56 58 59 59 59 59 61 64 66 68 69 69 67 64 60 57 54 51 48 46 44 43 42 41 41 40 39 37 36 35 34 34 34 35 35 36 35 34 33 31 30 28 27 26 26 26 25 23 21 18 16 15 14 14 16 19 22 25
56 57 58 58 58 57 56 54 52 50 49 48 48 49 50 52 53 54 55 55 55 55 54 54 54 54 55 56 58 59 59 59 60 62 65 67 68 69 68 66 63 59 56 53 50 47 45 43 42 41 40 39 38 37 36 35 35 34 34 33 33 33 34 35 34 33 32 31 29 27 26 25 24 24 23 22 20 18 17 16 16 16 17 19 22
57 56 56 54 53 51 49 47 46 46 46 47 48 50 51 52 53 54 55 54 53 52 52 52 53 54 55 57 58 58 59 60 61 63 65 67 68 69 68 66 62 59 55 52 49 47 45 43 42 41 39 38 37 36 35 34 34 34 34 34 33 33 33 33 34 34 33 32 31 29 28 26 25 23 22 21 21 20 19 18 17 17 18 18 20
52 50 49 47 45 44 44 44 44 46 47 48 50 51 52 53 53 53 53 52 51 51 52 52 53 55 56 57 58 59 59 61 62 64 66 67 68 69 68 65 61 58 55 51 49 46 44 42 42 41 39 38 37 36 35 34 34 34 34 34 34 34 33 33 32 32 33 33 32 31 29 28 26 25 23 21 20 19 19 19 19 19 19 19 20
44 44 43 42 42 42 43 44 45 47 48 50 51 52 52 53 53 52 51 50 51 52 53 53 55 56 57 58 58 59 60 62 63 65 66 67 68 68 67 64 61 57 54 51 48 46 44 42 41 40 40 39 37 36 36 35 34 34 34 34 34 34 33 32 32 31 31 31 32 31 31 30 29 27 26 24 22 20 18 18 18 19 20 21 22
41 41 42 42 43 43 44 45 47 49 50 51 52 52 52 52 51 50 50 50 51 53 54 55 57 58 59 59 59 60 61 63 64 65 66 67 68 69 67 64 61 57 54 51 48 46 44 42 41 40 39 39 38 37 37 36 35 34 34 34 34 34 33 33 32 31 30 30 30 30 31 31 30 29 28 27 26 24 22 20 18 18 19 21 22
42 43 44 45 46 47 47 49 51 52 52 52 52 52 52 51 50 50 51 52 53 54 55 57 59 59 59 59 60 61 63 64 65 66 67 68 69 70 68 64 61 58 55 52 49 46 44 43 42 40 39 39 38 38 37 37 36 36 35 34 34 34 34 34 33 32 31 30 29 29 29 30 30 30 30 29 28 27 26 24 22 20 19 19 21
45 45 46 47 48 49 50 51 52 52 52 52 52 52 52 52 52 52 53 54 55 57 58 59 61 61 60 60 60 62 64 65 66 67 68 68 70 70 67 64 60 57 54 52 50 47 45 43 43 42 41 40 39 38 38 37 36 36 36 36 35 34 34 34 34 34 33 31 30 30 29 29 29 29 29 30 30 29 29 27 26 25 24 22 21
47 47 48 50 50 50 51 52 52 52 53 53 54 54 54 54 55 56 57 58 58 59 61 62 62 62 61 61 61 62 64 65 67 68 68 69 70 70 67 63 60 56 53 51 49 47 45 44 43 42 41 40 39 39 38 37 37 36 36 36 36 35 35 35 35 35 34 34 33 32 31 30 29 29 29 29 29 30 30 30 29 28 28 27 26
48 48 50 51 52 53 53 54 55 55 56 56 56 56 56 58 59 60 60 61 61 62 63 63 63 62 62 62 63 64 65 67 68 69 69 70 70 69 66 63 60 56 53 51 49 47 46 45 44 44 43 41 40 39 38 37 37 37 36 36 36 37 37 37 37 37 36 36 35 34 33 33 32 31 30 30 29 29 30 30 30 30 30 30 29
47 48 49 52 54 56 57 57 58 58 59 58 58 58 59 60 61 62 62 63 63 64 64 64 63 62 62 63 64 65 67 68 69 70 70 71 71 70 66 63 60 57 53 51 49 48 47 46 45 44 44 43 42 42 40 39 38 37 36 36 36 37 38 38 39 39 38 38 37 37 36 36 35 34 33 32 31 30 30 30 30 31 31 31 31
51 52 53 55 58 59 59 59 60 60 60 60 59 60 61 62 62 63 64 64 65 65 65 64 63 63 63 64 65 66 68 70 71 71 72 73 72 70 67 64 61 57 54 50 48 48 48 47 47 46 45 43 42 42 42 41 40 39 37 37 37 38 38 39 39 40 40 40 40 40 39 39 38 38 37 37 36 35 34 33 32 32 32 32 32
56 57 58 60 60 61 61 61 61 61 61 61 61 62 63 64 64 64 65 66 66 65 65 64 64 64 64 65 66 68 69 70 71 72 73 73 72 70 67 64 61 58 55 51 49 48 47 47 47 48 47 46 45 44 43 42 41 40 39 39 39 40 41 41 41 41 41 42 42 42 42 42 41 41 40 40 39 39 39 38 37 36 35 34 34
60 61 61 61 62 61 61 61 61 61 62 63 63 64 65 65 66 66 67 67 66 65 65 65 65 66 66 67 68 70 71 71 72 73 74 74 72 69 66 63 60 58 55 52 50 48 48 47 47 48 48 49 48 48 47 45 44 42 41 40 40 41 43 44 44 43 43 44 45 46 46 45 45 44 44 43 42 42 42 42 41 41 40 39 38
62 62 62 62 62 62 61 62 62 63 64 64 65 66 67 67 67 68 67 66 66 65 66 66 67 68 69 70 72 73 73 73 73 75 75 74 72 69 66 63 60 58 55 53 50 49 49 48 48 48 48 49 49 49 50 50 49 48 46 45 44 44 44 45 45 46 46 46 47 49 49 49 49 48 47 46 45 45 44 44 44 44 44 44 43
Wind_Direction
253 254 254 254 254 255 256 257 259 260 262 263 264 266 268 270 272 275 277 280 282 284 287 289 291 292 293 294 295 296 297 299 300 301 302 303 304 304 305 307 308 309 310 311 311 311 310 310 310 310 310 309 308 307 306 304 303 302 301 300 299 297 295 291 286 281 279 276 273 270 270 268 267 266 265 262 259 255 251 249 249 249 247 245 243
254 256 257 258 258 258 258 259 261 262 264 266 267 269 270 272 274 276 279 282 284 286 288 289 291 292 293 294 295 296 298 299 300 300 301 303 304 305 306 307 308 309 310 310 310 310 310 310 309 309 308 308 306 305 304 303 302 301 300 299 299 298 296 294 290 285 282 279 276 272 270 268 266 264 263 263 262 260 256 251 249 249 248 246 244
257 258 260 262 263 263 263 264 264 266 267 269 270 272 274 275 277 279 281 283 285 287 289 290 291 292 293 295 296 297 298 299 299 300 301 303 304 305 307 307 308 309 309 309 310 309 309 309 309 308 307 306 305 304 303 302 301 301 300 299 299 298 296 294 291 287 283 281 279 276 272 270 268 265 262 260 260 260 259 256 252 249 249 248 245
262 263 265 266 267 269 269 270 270 270 271 272 273 275 276 277 279 280 282 284 285 287 288 290 291 293 294 295 296 297 298 298 299 300 301 302 304 305 306 307 308 308 308 309 309 309 308 308 308 307 306 305 304 303 303 303 302 302 301 300 299 297 296 294 292 289 285 281 278 276 274 271 269 267 264 260 258 257 257 257 255 252 250 248 247
267 268 269 270 271 272 273 274 275 275 275 276 276 277 278 279 280 281 282 284 286 287 289 291 292 293 294 295 296 297 298 298 298 299 301 303 304 305 306 307 307 308 308 308 308 308 308 308 307 306 305 304 304 304 303 303 302 301 300 298 297 295 294 293 291 289 286 282 278 276 274 271 270 268 266 263 259 257 255 255 255 254 252 250 247
270 271 272 273 274 275 275 276 277 278 278 278 279 279 280 281 282 283 284 286 288 289 291 292 293 293 294 294 295 296 297 297 298 299 301 303 304 305 306 306 307 307 308 308 308 308 308 307 306 305 304 304 304 303 302 301 300 299 298 297 296 295 293 292 290 289 286 284 280 276 274 271 269 267 266 264 261 258 256 254 253 252 251 250 249
272 273 273 274 275 276 277 278 278 279 279 280 280 281 282 283 284 286 287 288 289 290 291 292 292 293 293 294 295 296 296 296 298 299 301 303 304 305 306 306 307 307 307 307 308 308 308 307 306 305 304 304 303 302 301 300 300 300 299 298 297 295 293 291 289 287 285 283 280 277 275 272 269 266 264 263 261 259 256 254 253 252 250 248 248
272 273 274 275 276 277 278 279 280 281 281 282 282 283 284 285 286 287 288 289 290 290 291 292 292 293 293 294 295 296 297 298 299 300 302 303 304 304 305 306 306 307 307 308 308 308 308 307 305 304 304 303 302 302 302 303 302 302 301 299 297 296 293 291 289 286 284 281 279 277 275 274 271 268 265 263 261 259 257 254 253 252 250 247 246
273 275 276 277 278 278 279 280 280 281 282 283 284 284 285 286 287 288 289 290 291 291 292 293 293 294 295 296 297 298 299 300 300 301 302 303 304 305 305 306 307 307 308 309 309 308 307 306 305 304 304 304 305 305 305 304 303 302 301 300 298 296 294 291 289 286 284 281 279 277 276 274 273 271 269 266 263 260 258 255 253 252 252 250 247
274 275 276 277 278 279 279 280 281 281 282 283 284 284 285 286 287 288 289 290 291 292 293 294 295 296 297 297 298 299 299 300 301 301 302 303 304 305 306 307 308 309 309 309 308 307 306 305 305 306 307 308 308 308 307 306 305 303 301 298 296 294 292 290 288 286 284 282 280 278 277 275 274 273 271 269 267 264 261 258 254 252 251 250 249
274 276 277 278 279 280 280 280 281 281 282 282 283 285 286 287 288 288 289 291 292 293 294 296 296 297 297 297 298 298 299 300 301 302 303 304 305 306 307 308 309 310 309 308 307 306 306 306 308 309 310 310 309 309 308 307 306 304 302 299 296 293 291 289 287 285 284 282 280 279 277 276 275 274 273 271 269 267 264 261 257 254 251 249 249
277 278 279 279 279 280 281 281 281 281 282 283 284 286 287 287 288 289 290 291 293 294 295 295 295 296 296 296 297 298 299 300 301 303 304 304 305 306 308 309 309 309 308 306 306 307 308 309 310 310 310 310 310 310 309 308 307 306 304 302 300 297 295 292 290 287 285 283 281 279 278 276 275 274 273 272 270 268 266 263 259 255 252 248 247
278 278 279 278 279 280 281 281 281 281 283 284 286 287 287 288 288 289 290 291 292 293 294 294 294 294 295 296 297 298 299 300 301 302 303 305 306 307 308 308 308 308 307 307 308 309 309 309 310 310 310 310 310 310 310 309 308 307 306 305 303 301 300 298 295 292 290 287 284 281 279 277 276 274 273 272 271 269 267 264 260 256 252 248 245
276 277 277 278 278 279 280 280 280 282 283 285 286 287 287 287 288 289 289 290 291 293 293 293 293 294 295 296 297 298 299 300 302 303 304 305 306 307 307 308 308 308 308 309 309 309 309 310 310 310 310 311 311 311 311 310 309 308 307 306 305 304 302 301 300 298 295 293 290 286 283 280 277 274 273 272 271 269 267 264 261 257 253 248 243
272 274 275 276 277 278 279 279 281 283 283 284 285 286 287 287 288 288 289 290 292 293 294 294 295 296 297 298 298 300 301 302 303 304 305 306 307 307 308 308 308 308 308 309 309 309 310 310 310 310 311 311 311 311 311 310 310 309 308 307 307 306 305 303 302 300 298 296 294 291 288 284 280 277 275 273 271 268 266 264 261 258 254 249 243
272 275 275 274 274 276 278 280 281 282 283 283 284 285 287 288 288 289 290 292 293 295 295 296 297 298 298 299 300 301 303 304 304 305 306 306 307 307 307 307 307 308 308 309 309 309 310 310 310 311 311 312 312 311 311 310 310 310 309 309 309 308 306 305 303 302 300 298 296 293 290 286 283 279 276 274 272 269 266 264 261 258 254 249 243
274 275 274 273 274 275 278 281 281 281 283 284 285 286 287 288 289 290 291 294 295 296 297 297 298 299 300 301 302 303 304 304 305 305 306 306 306 307 307 307 308 308 309 309 309 309 310 310 311 312 312 312 311 311 312 312 311 312 311 311 311 310 309 308 307 306 304 302 300 296 293 288 283 278 275 273 272 270 269 265 261 257 253 247 242
271 270 269 271 273 275 277 278 279 281 283 284 284 286 287 288 289 290 293 295 296 296 297 298 299 300 301 302 302 303 304 304 305 305 306 306 306 306 307 308 308 309 309 309 310 310 311 311 312 312 312 312 312 312 313 313 313 313 313 313 312 312 312 311 310 310 309 308 305 302 299 293 286 279 275 272 271 270 269 267 261 255 250 245 239
265 266 267 270 272 274 275 276 278 280 282 282 284 286 287 289 289 291 292 294 294 295 297 299 300 301 302 302 303 303 304 304 305 305 306 306 306 307 308 308 309 309 309 310 310 311 311 312 312 312 312 313 314 314 314 314 314 314 314 314 314 314 314 313 313 313 312 311 309 307 304 299 292 285 278 274 271 269 268 266 261 252 246 242 237
259 263 266 269 272 273 275 276 278 279 280 282 285 286 287 288 289 290 291 292 294 296 298 299 300 301 302 302 303 303 304 304 305 305 306 306 307 308 308 309 309 310 310 310 311 311 312 312 313 313 314 315 315 316 316 315 315 315 316 316 317 317 316 314 313 313 314 313 312 310 308 305 300 293 285 277 272 269 266 263 259 252 245 241 236
260 263 265 268 271 273 275 276 278 279 281 283 285 286 287 288 289 290 291 292 294 296 297 298 299 300 301 301 302 303 303 304 304 305 306 307 308 308 309 309 310 310 310 311 311 312 313 314 315 316 316 316 317 317 317 316 317 317 318 318 318 317 316 315 314 315 316 315 314 312 311 309 306 300 292 284 276 271 265 260 256 251 244 240 236
263 265 267 268 270 272 275 276 278 280 283 284 285 286 287 288 289 290 291 293 295 296 297 298 298 299 300 301 302 303 303 304 305 306 307 308 308 309 310 310 310 310 311 311 312 313 315 316 317 317 317 317 317 317 317 318 318 319 320 320 319 319 318 317 316 317 318 317 316 314 313 312 309 305 298 290 281 273 265 257 252 247 241 238 234
264 265 267 268 269 271 274 276 279 281 283 285 285 287 288 289 290 291 292 293 294 295 296 298 299 300 301 302 303 303 304 304 305 306 307 308 309 309 310 310 310 311 312 313 314 315 316 317 317 317 317 318 318 318 319 320 320 320 321 321 321 321 320 319 318 318 320 320 319 317 316 314 312 309 303 295 285 275 265 255 248 242 237 234 231
264 265 267 269 270 272 274 276 279 281 283 284 286 287 288 289 290 291 292 293 295 296 297 298 299 300 302 302 303 303 304 305 306 307 308 309 309 310 310 310 311 312 314 315 316 317 317 317 318 318 318 319 319 319 320 320 321 321 322 322 322 322 321 320 320 320 322 323 322 320 319 317 314 311 306 298 287 276 264 253 245 238 233 230 227
264 266 268 269 271 272 274 276 278 280 282 284 286 287 288 289 290 291 293 294 295 296 297 298 300 301 302 302 303 304 305 306 307 308 309 309 310 310 311 312 313 314 315 316 317 317 318 318 319 319 319 319 319 320 321 321 322 323 323 323 322 322 322 322 322 323 326 326 325 322 320 318 315 312 307 300 289 275 261 250 242 234 229 226 223
263 266 268 269 270 272 274 276 278 280 282 284 286 287 288 289 290 291 293 294 295 296 298 299 300 301 302 302 303 305 306 307 308 308 309 309 310 311 312 313 314 315 316 317 318 318 319 319 319 319 319 320 321 321 322 323 323 323 323 322 322 323 323 325 325 325 327 328 326 323 320 318 315 312 307 300 289 275 260 248 239 231 225 220 217
263 265 267 268 270 272 274 276 278 280 282 284 285 287 288 289 290 291 293 294 295 297 298 300 300 301 302 303 304 305 306 307 308 308 309 310 311 312 313 314 315 316 317 318 319 319 319 319 319 320 320 321 322 322 322 323 323 323 323 323 323 324 325 326 325 325 327 328 328 325 321 318 316 312 307 300 289 274 259 245 235 229 223 218 214
263 265 267 268 270 272 274 276 278 280 282 283 285 286 288 289 290 292 293 295 296 297 299 299 300 300 301 303 304 306 307 307 308 308 309 311 312 313 314 315 316 317 318 319 319 320 320 320 320 321 321 321 322 322 323 323 323 323 323 323 324 326 328 329 329 329 330 331 332 329 324 320 318 314 308 301 289 274 257 242 233 230 225 220 215
264 266 267 269 271 273 275 276 278 280 282 283 285 286 288 289 291 292 294 295 296 297 298 299 299 300 302 303 305 306 306 307 308 309 311 312 313 314 315 316 317 319 319 320 320 320 321 321 321 321 321 322 322 323 324 324 323 323 324 325 326 329 332 334 334 334 334 334 335 335 331 326 321 315 309 301 290 275 259 243 232 228 226 223 218
264 266 268 270 272 273 275 277 279 280 282 283 285 287 288 290 291 293 294 295 296 297 297 298 299 300 302 304 305 305 306 307 309 310 312 313 314 315 317 318 319 320 321 321 321 322 322 322 322 322 322 322 324 324 324 324 323 323 324 326 329 331 334 336 337 337 336 337 337 337 334 329 324 318 311 302 291 277 261 247 233 225 224 223 220
265 267 269 271 273 274 276 278 279 281 282 284 286 287 289 290 292 293 294 295 295 296 297 298 299 301 303 304 304 305 306 308 310 311 312 314 315 317 318 319 321 322 322 322 322 322 322 322 322 322 323 323 324 324 324 323 323 324 325 327 330 332 334 337 339 340 340 339 337 337 336 333 327 321 313 303 292 280 265 251 238 228 223 222 220
268 270 271 273 274 275 277 279 280 281 283 285 286 288 289 291 292 293 294 294 294 295 297 298 300 301 302 303 304 305 307 308 310 312 313 315 317 319 320 321 322 323 323 323 323 323 323 323 323 323 323 323 323 323 323 323 323 324 326 328 330 332 335 337 339 341 341 340 338 338 338 336 331 325 317 307 295 284 270 256 243 234 227 223 221
270 271 272 273 275 277 278 279 281 282 284 285 286 288 290 291 292 292 292 293 294 295 297 298 300 301 302 303 304 306 307 309 311 313 315 318 319 321 322 323 323 324 324 324 324 324 324 323 323 322 322 323 323 323 322 321 322 323 325 327 329 331 333 336 338 339 341 341 341 340 339 338 335 329 321 311 299 286 275 263 250 239 232 227 224
270 272 273 274 276 277 278 279 281 282 284 285 287 288 289 290 290 290 291 292 294 295 297 299 300 301 302 303 304 306 308 310 313 315 317 319 321 322 323 324 324 325 325 325 324 324 324 323 323 323 323 322 322 322 321 320 321 322 324 326 328 329 331 334 336 338 340 342 343 342 341 339 338 334 326 317 305 289 277 269 259 247 238 232 228
271 272 273 275 276 277 278 280 281 283 284 286 287 288 288 288 288 289 290 292 294 296 298 299 300 301 302 303 305 307 309 312 314 316 319 321 322 323 323 324 325 325 325 325 325 324 323 323 323 323 322 322 321 321 321 320 321 322 324 326 327 329 330 332 335 337 340 342 343 343 342 340 338 336 332 323 312 298 280 268 262 256 248 240 234
271 272 274 275 276 278 279 281 282 283 284 285 286 286 286 286 287 289 291 293 295 297 298 299 300 301 302 304 306 309 312 314 316 318 320 321 322 323 324 325 326 326 325 325 324 324 324 324 323 322 321 320 319 319 320 320 321 322 324 326 327 328 330 331 333 335 338 340 341 342 342 341 339 336 334 328 319 308 293 275 262 256 253 249 243
272 273 275 276 278 279 280 281 281 282 282 283 283 283 285 286 288 290 292 294 296 297 297 298 300 301 303 306 309 311 313 315 316 319 321 322 323 324 325 326 326 326 325 325 325 324 324 323 323 321 319 318 317 318 318 320 321 322 323 325 326 328 329 330 332 333 334 336 338 339 341 342 341 338 335 331 325 315 304 290 274 260 252 250 248
274 275 276 277 278 278 279 279 279 279 279 280 282 283 285 288 289 291 293 294 295 296 297 299 301 303 306 308 311 313 314 315 317 319 321 322 323 324 325 326 326 326 325 325 324 324 323 323 321 320 318 316 316 316 317 318 320 321 322 323 325 326 328 328 329 330 331 333 335 337 338 340 341 340 337 332 327 320 311 300 288 275 262 253 248
275 276 276 276 276 275 275 275 276 277 278 280 282 284 287 289 291 292 293 294 295 296 298 300 303 305 308 311 312 313 314 316 317 319 321 322 324 325 326 326 326 325 325 324 323 323 323 322 321 319 317 316 315 315 315 317 318 320 321 323 324 325 326 327 328 329 330 331 333 335 336 337 338 340 339 335 330 323 316 308 298 287 277 267 257
274 273 272 271 271 271 272 273 275 277 279 281 283 285 288 290 291 292 293 294 295 297 300 302 305 308 310 312 313 313 314 316 317 319 321 323 324 325 326 326 325 324 324 323 322 322 321 321 320 318 317 315 315 314 315 316 318 319 321 323 324 325 325 326 327 328 329 330 331 332 333 334 335 336 336 336 332 326 319 312 305 296 288 279 271
268 267 266 267 267 269 271 274 276 278 280 282 284 286 288 290 291 293 294 296 298 300 302 305 307 309 311 312 312 312 313 315 317 319 321 322 324 325 326 325 324 324 323 322 321 320 320 320 319 317 316 315 315 315 316 317 318 320 321 322 323 323 324 325 326 327 328 329 329 330 331 332 332 333 333 333 332 329 323 315 307 301 295 289 282
264 264 265 266 267 269 271 274 276 278 280 282 284 287 289 292 294 295 297 299 300 302 304 306 308 310 311 311 311 312 313 314 316 318 320 322 324 325 325 325 324 323 322 320 320 319 319 318 318 316 315 315 315 315 316 317 318 319 320 321 322 322 323 324 324 325 326 326 327 328 329 329 329 329 329 329 329 328 325 320 312 303 296 291 287
263 264 266 268 269 270 271 273 274 276 279 282 286 290 293 295 297 298 300 301 302 303 305 306 308 309 310 310 310 311 312 314 316 318 320 322 324 325 325 324 323 322 321 319 319 318 318 317 316 315 314 314 314 315 316 317 318 318 319 320 321 322 322 323 323 323 324 324 325 326 327 327 327 326 326 326 325 325 324 322 318 311 303 294 288
268 268 269 270 271 272 273 274 276 279 283 288 292 294 296 297 299 300 301 302 303 303 305 306 307 308 308 308 309 310 311 313 315 317 319 321 323 324 324 323 322 321 319 318 316 316 316 315 314 314 314 314 314 314 315 315 316 317 318 318 319 320 321 322 322 322 323 323 323 323 323 323 323 323 323 322 322 321 320 319 318 315 311 305 297
274 274 274 274 275 275 277 279 283 286 290 293 295 296 297 299 300 301 301 302 302 302 303 304 305 306 306 307 307 308 310 312 314 316 318 320 322 323 322 321 321 319 318 315 314 314 313 312 312 312 312 312 312 312 312 313 314 314 315 316 317 319 320 321 321 321 322 322 321 321 321 321 321 320 319 319 318 317 317 316 315 314 312 309 305
273 275 276 276 277 279 281 284 287 289 292 294 296 297 298 299 299 299 299 299 299 300 302 303 303 304 305 305 307 308 310 312 314 316 318 319 321 321 321 320 319 318 316 314 313 312 311 310 310 310 310 310 310 310 310 310 311 312 314 315 317 319 320 320 320 321 321 321 321 320 320 320 319 318 317 315 314 314 313 312 312 311 310 309 307
268 270 271 273 276 279 282 285 287 289 291 293 293 293 294 294 295 295 296 296 298 299 300 301 302 302 303 304 306 307 309 311 313 315 317 318 319 320 319 318 318 317 315 313 311 309 309 308 308 308 308 309 309 308 308 308 308 309 311 313 315 317 318 319 319 319 320 320 320 319 319 319 318 317 316 314 313 311 310 309 308 307 306 306 305
262 264 267 270 274 277 279 282 284 286 287 289 289 290 291 292 292 293 294 295 296 297 298 299 300 301 302 303 305 307 309 311 312 314 316 317 318 318 318 317 316 315 313 311 309 307 307 306 307 306 306 306 305 305 305 305 306 307 309 311 313 314 315 316 316 317 318 318 319 318 318 318 318 317 316 315 314 312 310 308 306 304 303 302 301
261 263 266 269 272 274 276 279 281 284 286 287 288 289 290 291 291 292 293 294 295 296 297 298 299 300 302 303 305 306 308 309 311 313 314 315 316 316 316 315 315 313 311 308 306 305 304 304 304 304 304 304 303 303 302 302 303 305 308 310 312 312 313 313 314 315 316 317 317 317 317 317 316 316 315 314 313 312 311 309 307 305 302 301 300
262 264 266 269 272 274 277 279 282 284 285 287 289 289 289 290 291 291 292 293 294 295 296 297 299 300 301 303 304 305 306 308 310 311 312 313 314 314 313 313 312 311 309 306 304 303 302 302 302 302 302 302 302 303 303 302 302 302 304 306 308 309 310 311 312 314 315 315 315 315 315 315 315 314 313 312 311 311 310 308 307 306 304 302 301
266 268 270 273 275 277 279 281 282 284 285 286 288 288 288 289 290 290 291 293 294 295 296 298 299 300 301 302 303 304 306 308 309 310 311 312 312 312 311 311 310 309 306 304 302 302 301 300 300 300 299 299 300 301 302 303 304 304 305 305 306 306 307 308 309 311 312 313 313 313 313 313 313 312 311 310 309 309 308 306 305 304 304 303 302
Height
10691 10692 10694 10695 10696 10697 10698 10698 10698 10698 10698 10697 10697 10696 10695 10694 10693 10692 10691 10689 10687 10685 10683 10681 10680 10678 10676 10675 10673 10671 10669 10667 10664 10662 10659 10656 10654 10652 10649 10646 10643 10640 10637 10634 10631 10627 10624 10620 10617 10613 10609 10605 10602 10599 10596 10593 10590 10588 10586 10584 10582 10582 10582 10582 10582 10579 10571 10568 10569 10566 10562 10563 10562 10559 10560 10562 10562 10564 10567 10567 10567 10568 10569 10570 10571
10686 10687 10688 10689 10690 10691 10692 10693 10693 10692 10692 10691 10691 10690 10689 10688 10687 10686 10684 10682 10680 10678 10677 10675 10673 10672 10670 10669 10667 10665 10663 10660 10657 10654 10652 10649 10647 10644 10642 10639 10635 10632 10629 10626 10623 10620 10616 10613 10609 10605 10601 10597 10594 10591 10588 10585 10582 10579 10576 10574 10572 10570 10570 10569 10569 10569 10564 10557 10555 10556 10553 10552 10552 10550 10550 10552 10551 10551 10554 10556 10557 10558 10559 10560 10562
10681 10682 10683 10683 10684 10685 10686 10686 10687 10687 10686 10686 10685 10684 10683 10682 10681 10680 10678 10676 10674 10672 10671 10669 10667 10666 10664 10663 10661 10658 10656 10653 10650 10647 10645 10643 10640 10637 10634 10631 10628 10625 10622 10619 10616 10612 10609 10605 10601 10597 10593 10589 10585 10582 10579 10576 10573 10570 10567 10564 10562 10559 10558 10557 10556 10556 10555 10549 10543 10542 10542 10540 10539 10538 10539 10542 10542 10540 10540 10542 10545 10548 10549 10550 10552
10676 10676 10677 10678 10678 10679 10679 10680 10681 10681 10680 10680 10679 10678 10677 10676 10675 10674 10672 10670 10668 10667 10666 10664 10662 10660 10658 10656 10653 10651 10648 10646 10643 10640 10638 10636 10633 10630 10627 10623 10620 10617 10614 10611 10608 10604 10601 10597 10593 10589 10585 10581 10577 10573 10570 10567 10563 10560 10557 10553 10551 10548 10545 10544 10544 10543 10543 10540 10534 10530 10529 10528 10527 10525 10526 10529 10530 10530 10529 10530 10532 10535 10538 10539 10541
10670 10671 10671 10672 10673 10673 10674 10674 10674 10674 10674 10674 10673 10672 10671 10670 10669 10667 10666 10664 10663 10661 10660 10657 10655 10653 10650 10648 10646 10644 10641 10638 10636 10633 10631 10628 10625 10622 10619 10616 10613 10610 10607 10603 10600 10597 10593 10589 10585 10582 10577 10573 10569 10564 10560 10557 10554 10550 10547 10544 10540 10537 10534 10531 10530 10529 10528 10528 10524 10519 10517 10516 10515 10513 10512 10515 10517 10517 10518 10519 10520 10521 10524 10526 10528
10665 10665 10666 10667 10668 10668 10669 10669 10668 10668 10667 10667 10666 10665 10664 10663 10662 10661 10659 10658 10657 10655 10652 10650 10648 10646 10644 10641 10639 10637 10634 10631 10628 10626 10623 10621 10618 10615 10612 10609 10606 10602 10599 10595 10592 10589 10585 10581 10577 10573 10570 10565 10561 10557 10552 10549 10546 10542 10538 10534 10530 10526 10523 10520 10517 10515 10514 10513 10511 10508 10505 10503 10503 10501 10499 10500 10503 10504 10505 10506 10507 10508 10510 10512 10515
10660 10660 10661 10662 10663 10663 10663 10663 10662 10661 10661 10660 10659 10658 10657 10656 10655 10654 10652 10651 10650 10648 10646 10644 10642 10640 10637 10635 10633 10630 10627 10624 10621 10618 10616 10614 10611 10608 10605 10602 10598 10595 10591 10588 10584 10580 10576 10572 10569 10564 10561 10557 10553 10549 10545 10540 10536 10532 10528 10524 10519 10515 10512 10508 10505 10503 10500 10498 10496 10494 10492 10489 10488 10489 10487 10486 10488 10490 10491 10493 10494 10493 10496 10500 10501
10655 10656 10657 10657 10658 10658 10657 10656 10656 10655 10654 10653 10652 10651 10650 10650 10649 10648 10646 10645 10643 10642 10640 10638 10636 10634 10631 10629 10626 10623 10620 10618 10614 10611 10608 10606 10603 10601 10597 10594 10590 10587 10583 10579 10575 10571 10566 10562 10559 10555 10551 10548 10544 10539 10535 10530 10525 10521 10517 10512 10508 10504 10500 10497 10493 10490 10488 10485 10483 10480 10478 10475 10473 10474 10474 10473 10474 10475 10477 10480 10482 10480 10480 10486 10489
10651 10652 10651 10652 10652 10651 10651 10650 10649 10649 10648 10646 10645 10645 10644 10643 10642 10641 10640 10638 10637 10636 10634 10632 10630 10628 10625 10622 10620 10617 10614 10611 10607 10604 10601 10598 10595 10592 10589 10586 10582 10578 10574 10570 10565 10561 10556 10552 10548 10544 10540 10536 10531 10527 10523 10519 10515 10510 10506 10502 10497 10493 10489 10485 10482 10478 10475 10472 10469 10466 10464 10461 10458 10458 10459 10459 10460 10461 10462 10466 10470 10469 10467 10470 10474
10647 10647 10646 10646 10646 10646 10645 10644 10643 10643 10642 10641 10640 10639 10638 10638 10636 10635 10634 10632 10631 10629 10628 10626 10624 10622 10619 10616 10613 10610 10607 10604 10601 10597 10594 10590 10587 10584 10580 10577 10573 10569 10564 10560 10556 10551 10547 10542 10537 10532 10527 10522 10518 10513 10509 10505 10501 10498 10494 10491 10487 10483 10479 10475 10470 10467 10463 10459 10456 10453 10450 10447 10444 10443 10444 10444 10445 10447 10448 10450 10455 10457 10456 10458 10459
10642 10642 10642 10641 10641 10640 10639 10638 10637 10637 10636 10635 10635 10634 10633 10632 10631 10629 10628 10626 10625 10623 10622 10620 10618 10615 10613 10610 10607 10604 10601 10597 10594 10591 10587 10583 10579 10575 10572 10568 10564 10560 10555 10551 10547 10542 10537 10532 10526 10521 10516 10511 10505 10500 10496 10491 10487 10483 10480 10477 10474 10471 10468 10464 10460 10456 10452 10448 10443 10440 10437 10434 10430 10428 10428 10428 10429 10431 10434 10436 10439 10442 10444 10447 10447
10638 10637 10637 10636 10636 10635 10634 10632 10632 10631 10630 10630 10629 10629 10628 10626 10625 10623 10622 10621 10619 10618 10616 10614 10612 10610 10607 10604 10601 10597 10594 10591 10587 10584 10580 10575 10571 10567 10563 10559 10555 10551 10547 10542 10537 10532 10527 10522 10517 10511 10506 10500 10495 10489 10484 10479 10474 10470 10465 10461 10458 10455 10452 10449 10446 10443 10439 10435 10431 10426 10423 10421 10418 10414 10412 10412 10413 10414 10417 10420 10423 10426 10429 10433 10436
10633 10633 10632 10631 10630 10630 10628 10627 10626 10625 10625 10625 10624 10623 10622 10621 10619 10618 10617 10616 10614 10613 10611 10608 10606 10603 10600 10597 10594 10591 10588 10584 10580 10577 10572 10568 10564 10559 10555 10551 10547 10542 10537 10532 10527 10522 10517 10512 10507 10502 10497 10491 10485 10479 10473 10468 10463 10458 10453 10448 10443 10439 10435 10431 10428 10425 10423 10421 10418 10414 10411 10408 10405 10401 10397 10397 10398 10398 10400 10403 10405 10410 10413 10417 10423
10628 10627 10627 10626 10625 10624 10623 10622 10622 10622 10621 10621 10620 10619 10617 10616 10615 10613 10612 10610 10609 10607 10605 10602 10600 10597 10594 10591 10588 10584 10581 10577 10573 10569 10565 10561 10556 10551 10546 10542 10537 10532 10527 10522 10518 10514 10509 10504 10498 10492 10487 10481 10475 10469 10463 10458 10453 10447 10442 10436 10430 10425 10421 10416 10412 10409 10406 10404 10403 10400 10398 10396 10393 10389 10385 10384 10385 10385 10386 10387 10389 10394 10399 10403 10410
10623 10623 10622 10621 10619 10618 10617 10617 10618 10618 10617 10616 10615 10614 10613 10611 10610 10608 10606 10604 10603 10601 10598 10596 10593 10590 10587 10584 10580 10577 10573 10569 10565 10561 10557 10553 10548 10543 10538 10533 10528 10523 10519 10514 10509 10505 10500 10495 10489 10483 10477 10472 10466 10460 10454 10448 10442 10437 10431 10425 10419 10413 10408 10404 10401 10398 10394 10391 10389 10386 10385 10383 10380 10378 10374 10372 10373 10372 10372 10373 10376 10380 10385 10390 10396
10619 10617 10616 10614 10612 10612 10612 10613 10613 10613 10612 10611 10610 10609 10608 10606 10604 10602 10600 10598 10597 10594 10592 10589 10586 10583 10580 10576 10573 10569 10565 10561 10557 10553 10549 10544 10540 10535 10530 10525 10520 10515 10511 10507 10502 10496 10491 10486 10480 10475 10469 10463 10457 10451 10445 10439 10433 10427 10421 10415 10409 10402 10397 10393 10390 10387 10384 10381 10379 10375 10373 10372 10369 10366 10363 10361 10360 10360 10360 10363 10365 10369 10373 10378 10383
10613 10611 10608 10606 10606 10607 10608 10608 10608 10607 10607 10606 10605 10604 10602 10600 10599 10597 10594 10592 10590 10588 10585 10582 10579 10576 10572 10568 10565 10561 10557 10553 10549 10545 10541 10537 10532 10527 10522 10517 10513 10508 10503 10499 10494 10488 10483 10477 10471 10466 10460 10455 10449 10443 10437 10430 10423 10417 10411 10405 10399 10393 10387 10382 10378 10376 10373 10371 10369 10366 10364 10363 10360 10356 10353 10351 10349 10349 10350 10353 10357 10360 10363 10366 10370
10607 10604 10601 10601 10602 10603 10603 10603 10603 10602 10602 10601 10600 10598 10597 10595 10593 10590 10588 10586 10583 10581 10578 10575 10572 10569 10565 10561 10558 10554 10550 10546 10542 10538 10534 10529 10524 10519 10515 10510 10505 10501 10496 10491 10485 10480 10474 10469 10463 10458 10452 10446 10441 10434 10428 10421 10415 10409 10402 10396 10391 10385 10379 10373 10369 10365 10362 10360 10358 10356 10354 10353 10351 10348 10346 10343 10341 10340 10341 10344 10348 10351 10353 10355 10358
10599 10596 10596 10597 10598 10598 10598 10598 10598 10597 10597 10596 10595 10593 10591 10589 10587 10584 10582 10580 10577 10575 10572 10569 10565 10562 10559 10555 10551 10547 10543 10539 10535 10530 10526 10521 10517 10512 10508 10503 10498 10493 10488 10483 10477 10472 10466 10461 10455 10449 10443 10438 10432 10425 10419 10413 10406 10401 10395 10389 10383 10378 10372 10367 10363 10359 10355 10351 10349 10347 10345 10343 10341 10340 10339 10337 10335 10334 10335 10337 10339 10342 10344 10345 10349
10593 10592 10593 10593 10593 10594 10594 10593 10593 10592 10591 10590 10589 10587 10585 10583 10580 10578 10576 10574 10571 10568 10565 10562 10559 10555 10552 10548 10544 10540 10536 10532 10527 10523 10519 10514 10510 10505 10500 10495 10490 10485 10479 10474 10469 10464 10458 10453 10447 10440 10434 10428 10422 10416 10409 10403 10398 10393 10387 10383 10378 10372 10366 10361 10357 10354 10351 10346 10343 10340 10338 10336 10334 10333 10332 10330 10329 10328 10329 10330 10332 10334 10336 10338 10343
10590 10589 10589 10589 10589 10589 10589 10588 10587 10586 10586 10585 10583 10581 10579 10577 10574 10572 10570 10567 10565 10562 10559 10555 10552 10549 10545 10542 10538 10533 10529 10525 10520 10516 10512 10508 10503 10498 10493 10488 10483 10477 10472 10466 10461 10455 10450 10444 10438 10431 10425 10418 10412 10407 10401 10395 10390 10385 10380 10376 10372 10367 10362 10356 10352 10349 10346 10342 10338 10334 10332 10331 10329 10327 10326 10325 10324 10323 10324 10325 10326 10328 10331 10333 10338
10586 10585 10585 10585 10584 10584 10583 10582 10581 10580 10579 10578 10576 10574 10572 10570 10568 10566 10564 10561 10558 10555 10552 10549 10545 10542 10539 10535 10531 10527 10522 10518 10514 10510 10505 10501 10497 10492 10486 10481 10475 10470 10464 10459 10453 10447 10441 10436 10430 10423 10417 10410 10404 10399 10394 10388 10383 10378 10374 10370 10365 10361 10357 10351 10347 10343 10340 10337 10333 10329 10327 10325 10324 10322 10321 10320 10319 10319 10319 10320 10321 10323 10326 10328 10333
10581 10581 10580 10579 10578 10578 10577 10576 10575 10574 10573 10571 10569 10568 10566 10563 10561 10559 10557 10554 10551 10548 10545 10542 10539 10536 10532 10528 10524 10520 10516 10512 10507 10503 10499 10495 10490 10485 10479 10474 10468 10463 10457 10451 10445 10439 10433 10428 10422 10416 10410 10403 10397 10392 10387 10382 10377 10372 10368 10364 10360 10356 10351 10347 10342 10338 10335 10332 10328 10325 10322 10320 10319 10318 10317 10316 10315 10315 10315 10316 10317 10319 10321 10324 10328
10575 10575 10575 10574 10573 10572 10571 10570 10569 10568 10566 10565 10563 10561 10559 10557 10555 10553 10550 10548 10544 10541 10538 10535 10532 10529 10525 10521 10517 10513 10509 10506 10501 10497 10493 10488 10483 10478 10472 10467 10461 10456 10450 10444 10438 10432 10426 10420 10414 10408 10402 10396 10391 10386 10381 10377 10373 10368 10364 10359 10355 10351 10347 10343 10338 10334 10331 10327 10324 10321 10318 10316 10315 10314 10313 10312 10312 10311 10311 10312 10313 10315 10317 10320 10324
10569 10569 10568 10567 10567 10566 10565 10564 10563 10562 10560 10558 10557 10555 10553 10551 10548 10546 10543 10541 10537 10534 10531 10528 10525 10521 10518 10514 10511 10507 10503 10499 10495 10490 10486 10481 10476 10471 10466 10460 10455 10449 10443 10437 10431 10425 10419 10412 10406 10401 10395 10390 10385 10381 10376 10373 10369 10364 10360 10356 10352 10348 10344 10339 10335 10331 10327 10324 10320 10317 10315 10313 10312 10311 10310 10309 10309 10309 10308 10309 10310 10312 10314 10317 10320
10563 10562 10562 10561 10561 10560 10559 10558 10557 10555 10554 10552 10550 10548 10546 10544 10542 10540 10537 10534 10531 10528 10525 10521 10518 10514 10511 10507 10504 10500 10496 10492 10488 10483 10479 10474 10469 10464 10459 10454 10448 10442 10437 10430 10424 10418 10412 10406 10400 10395 10390 10385 10380 10375 10371 10367 10364 10361 10357 10353 10349 10345 10341 10336 10332 10328 10325 10322 10318 10315 10312 10310 10309 10308 10307 10307 10306 10306 10306 10307 10308 10310 10311 10313 10316
10556 10555 10555 10555 10554 10553 10553 10551 10550 10549 10547 10545 10543 10541 10540 10538 10535 10533 10530 10527 10524 10521 10518 10515 10511 10508 10504 10501 10498 10494 10490 10486 10481 10477 10472 10468 10463 10458 10452 10447 10441 10436 10430 10424 10418 10412 10406 10400 10395 10389 10385 10380 10376 10371 10367 10363 10360 10357 10354 10350 10346 10342 10338 10335 10331 10327 10323 10320 10317 10313 10310 10308 10306 10305 10304 10304 10304 10304 10304 10305 10305 10307 10308 10310 10312
10549 10549 10548 10548 10547 10547 10546 10544 10543 10542 10540 10538 10537 10535 10533 10531 10529 10526 10523 10520 10517 10514 10511 10508 10505 10501 10498 10495 10491 10488 10484 10479 10475 10471 10466 10461 10456 10451 10446 10440 10435 10429 10423 10417 10411 10405 10399 10394 10389 10384 10380 10376 10372 10368 10364 10360 10356 10353 10350 10346 10343 10339 10335 10331 10327 10323 10319 10317 10314 10311 10308 10306 10304 10303 10302 10302 10302 10302 10302 10302 10303 10304 10306 10308 10309
10542 10542 10541 10541 10541 10540 10539 10537 10536 10535 10534 10532 10530 10528 10526 10524 10522 10519 10516 10513 10511 10508 10505 10501 10498 10495 10492 10489 10485 10482 10477 10473 10469 10464 10460 10455 10450 10445 10439 10434 10429 10423 10417 10411 10405 10399 10393 10388 10383 10378 10374 10370 10367 10364 10360 10357 10353 10349 10346 10342 10339 10336 10332 10328 10324 10320 10316 10314 10311 10308 10306 10304 10302 10301 10300 10299 10299 10300 10300 10300 10301 10302 10304 10306 10308
10534 10534 10534 10534 10534 10532 10531 10530 10530 10528 10526 10525 10523 10521 10519 10517 10515 10512 10509 10507 10504 10501 10498 10495 10492 10489 10486 10483 10479 10475 10471 10467 10463 10458 10453 10448 10443 10438 10433 10428 10422 10417 10411 10404 10399 10393 10388 10383 10378 10373 10369 10365 10362 10359 10356 10353 10350 10346 10343 10339 10336 10332 10330 10326 10323 10319 10315 10312 10309 10307 10304 10302 10301 10299 10298 10297 10297 10297 10298 10298 10299 10299 10301 10303 10305
10527 10527 10528 10527 10526 10524 10523 10523 10522 10521 10519 10518 10516 10514 10513 10510 10508 10505 10502 10500 10497 10494 10492 10489 10486 10483 10480 10477 10473 10469 10465 10461 10456 10452 10447 10442 10438 10432 10427 10422 10416 10410 10404 10398 10393 10388 10383 10378 10374 10369 10365 10362 10358 10355 10352 10349 10346 10344 10341 10337 10334 10330 10327 10324 10321 10317 10314 10310 10307 10305 10303 10301 10299 10298 10297 10296 10295 10295 10296 10296 10297 10297 10298 10300 10302
10520 10520 10520 10519 10518 10517 10517 10516 10515 10513 10512 10511 10509 10507 10506 10503 10501 10498 10495 10493 10490 10488 10486 10483 10480 10478 10475 10471 10467 10463 10459 10455 10451 10446 10441 10437 10432 10426 10421 10415 10410 10404 10399 10393 10388 10383 10378 10374 10370 10365 10362 10359 10356 10352 10349 10346 10343 10340 10338 10335 10332 10328 10325 10322 10319 10316 10313 10310 10306 10303 10301 10299 10298 10296 10295 10294 10293 10293 10293 10294 10295 10295 10296 10297 10299
10513 10513 10512 10512 10511 10510 10510 10509 10507 10506 10505 10504 10502 10500 10498 10496 10494 10491 10489 10486 10484 10482 10480 10477 10474 10472 10468 10465 10461 10458 10453 10449 10445 10440 10435 10431 10426 10421 10415 10410 10404 10399 10393 10388 10383 10378 10374 10370 10366 10362 10359 10356 10353 10350 10347 10343 10340 10337 10335 10332 10330 10327 10324 10321 10318 10315 10312 10309 10305 10302 10299 10297 10296 10295 10293 10293 10292 10291 10291 10291 10292 10293 10294 10294 10296
10505 10506 10505 10505 10504 10503 10502 10501 10500 10499 10498 10496 10495 10493 10491 10489 10487 10485 10482 10480 10478 10476 10474 10471 10468 10466 10462 10459 10455 10452 10447 10443 10439 10434 10430 10425 10420 10415 10410 10405 10399 10394 10389 10384 10379 10374 10370 10366 10362 10359 10355 10353 10350 10347 10345 10341 10338 10334 10332 10329 10327 10325 10322 10320 10317 10313 10310 10307 10304 10301 10298 10296 10294 10293 10292 10291 10290 10290 10289 10289 10289 10290 10291 10292 10293
10499 10499 10498 10497 10496 10496 10495 10494 10493 10491 10490 10489 10488 10486 10484 10482 10480 10478 10476 10475 10472 10470 10468 10465 10462 10460 10456 10453 10449 10445 10441 10437 10433 10429 10424 10419 10414 10409 10404 10399 10394 10389 10384 10379 10375 10371 10366 10362 10359 10355 10352 10349 10347 10344 10342 10339 10336 10332 10329 10326 10324 10321 10319 10317 10315 10312 10309 10306 10302 10300 10297 10295 10293 10291 10290 10289 10288 10288 10287 10287 10287 10287 10288 10289 10290
10492 10492 10491 10490 10489 10489 10488 10487 10485 10484 10483 10482 10480 10479 10477 10476 10474 10472 10471 10469 10467 10464 10462 10459 10456 10454 10450 10447 10443 10439 10435 10431 10427 10423 10419 10414 10409 10404 10399 10393 10388 10384 10379 10375 10371 10367 10363 10359 10355 10352 10349 10346 10343 10341 10339 10336 10334 10331 10327 10324 10321 10318 10316 10314 10311 10309 10307 10305 10303 10299 10296 10294 10291 10289 10288 10287 10286 10285 10285 10285 10285 10284 10284 10285 10286
10485 10484 10483 10482 10482 10482 10480 10479 10478 10477 10476 10475 10474 10472 10471 10470 10468 10467 10465 10463 10461 10458 10456 10453 10450 10448 10445 10441 10438 10434 10430 10426 10422 10417 10413 10409 10404 10398 10393 10388 10383 10379 10375 10371 10367 10363 10359 10356 10353 10350 10347 10344 10341 10338 10336 10333 10331 10329 10326 10323 10320 10317 10314 10311 10309 10307 10305 10303 10301 10299 10296 10293 10290 10288 10286 10285 10284 10283 10282 10282 10282 10282 10282 10282 10282
10477 10477 10476 10475 10475 10474 10473 10472 10471 10470 10469 10468 10467 10466 10465 10464 10462 10461 10459 10457 10455 10452 10450 10447 10444 10441 10438 10435 10431 10427 10423 10420 10416 10412 10408 10403 10398 10393 10388 10383 10378 10374 10370 10366 10363 10359 10356 10353 10350 10347 10344 10341 10339 10336 10333 10331 10328 10326 10324 10321 10319 10316 10313 10309 10307 10305 10302 10300 10299 10297 10295 10293 10290 10287 10285 10283 10282 10281 10280 10279 10279 10279 10279 10279 10279
10470 10469 10468 10468 10468 10467 10466 10466 10465 10464 10463 10462 10461 10460 10459 10458 10456 10454 10452 10450 10448 10446 10444 10441 10438 10435 10432 10428 10425 10421 10417 10414 10410 10406 10402 10397 10392 10388 10383 10378 10373 10369 10366 10362 10359 10356 10352 10349 10346 10344 10341 10339 10336 10333 10331 10328 10326 10323 10321 10318 10316 10313 10311 10308 10305 10302 10299 10297 10295 10293 10292 10290 10289 10287 10285 10282 10280 10279 10278 10277 10276 10276 10275 10275 10275
10463 10462 10462 10461 10461 10460 10460 10460 10459 10458 10457 10456 10455 10454 10453 10452 10450 10448 10446 10444 10442 10440 10438 10435 10432 10429 10426 10422 10419 10415 10411 10408 10404 10400 10396 10392 10387 10383 10378 10374 10369 10365 10362 10358 10355 10352 10349 10346 10343 10341 10338 10336 10333 10330 10328 10326 10323 10320 10318 10315 10313 10310 10308 10306 10303 10300 10297 10294 10292 10290 10289 10287 10286 10284 10283 10281 10280 10278 10276 10275 10274 10273 10272 10272 10272
10456 10456 10456 10456 10455 10455 10455 10454 10453 10452 10451 10450 10450 10449 10447 10446 10444 10442 10440 10438 10436 10433 10431 10429 10426 10423 10420 10417 10413 10410 10406 10403 10399 10395 10391 10387 10383 10378 10374 10369 10365 10361 10357 10354 10351 10348 10345 10343 10340 10337 10335 10332 10330 10327 10325 10322 10320 10317 10315 10312 10310 10307 10305 10303 10300 10298 10295 10293 10290 10288 10286 10284 10282 10281 10280 10279 10277 10276 10275 10273 10271 10270 10269 10268 10268
10451 10450 10450 10450 10449 10449 10449 10448 10447 10446 10445 10445 10444 10443 10441 10439 10437 10435 10433 10431 10429 10427 10424 10422 10419 10417 10414 10410 10407 10404 10401 10397 10394 10390 10386 10382 10377 10373 10368 10364 10360 10356 10352 10349 10347 10344 10341 10339 10337 10335 10332 10329 10326 10323 10321 10319 10316 10314 10311 10309 10306 10304 10302 10300 10298 10295 10293 10291 10288 10286 10283 10281 10279 10278 10276 10275 10274 10273 10272 10271 10269 10268 10267 10265 10264
10445 10445 10445 10444 10443 10443 10443 10442 10441 10440 10439 10439 10438 10436 10434 10432 10430 10428 10427 10425 10423 10421 10418 10415 10413 10410 10408 10405 10401 10397 10394 10390 10387 10384 10380 10376 10372 10368 10363 10359 10355 10351 10347 10344 10341 10339 10337 10334 10332 10331 10328 10326 10323 10320 10317 10315 10312 10310 10308 10305 10303 10300 10298 10296 10294 10292 10290 10288 10286 10284 10281 10279 10277 10275 10273 10272 10271 10269 10268 10267 10266 10265 10264 10262 10261
10439 10439 10439 10438 10437 10437 10436 10436 10435 10434 10433 10432 10431 10429 10427 10425 10424 10422 10420 10418 10416 10414 10412 10410 10406 10404 10402 10400 10397 10393 10389 10385 10381 10378 10375 10371 10367 10363 10359 10355 10351 10347 10343 10340 10337 10334 10332 10330 10327 10325 10323 10321 10319 10316 10314 10311 10309 10306 10303 10301 10299 10297 10295 10293 10290 10288 10286 10284 10283 10281 10279 10277 10275 10273 10270 10269 10267 10266 10264 10263 10262 10261 10260 10259 10257
10433 10433 10432 10431 10430 10430 10429 10429 10428 10427 10426 10425 10424 10422 10420 10418 10417 10415 10413 10412 10410 10408 10406 10404 10401 10398 10395 10393 10391 10388 10384 10380 10377 10373 10370 10366 10363 10358 10354 10350 10346 10343 10339 10336 10333 10330 10328 10325 10323 10321 10319 10317 10315 10312 10310 10307 10305 10303 10300 10298 10295 10293 10291 10289 10287 10285 10282 10280 10278 10277 10275 10273 10271 10270 10268 10266 10264 10262 10260 10259 10258 10257 10256 10254 10253
10428 10427 10426 10424 10424 10423 10422 10422 10421 10421 10419 10418 10417 10415 10414 10412 10410 10409 10407 10405 10404 10402 10400 10398 10395 10392 10389 10386 10383 10380 10378 10374 10371 10367 10364 10361 10358 10354 10350 10345 10342 10338 10335 10331 10328 10325 10322 10320 10318 10316 10314 10312 10310 10308 10306 10303 10301 10298 10296 10294 10291 10289 10287 10285 10283 10281 10279 10276 10274 10272 10271 10269 10267 10266 10264 10262 10261 10259 10257 10255 10254 10252 10251 10250 10249
10423 10421 10420 10419 10418 10417 10416 10416 10415 10414 10413 10412 10411 10409 10408 10406 10405 10403 10401 10399 10397 10395 10393 10391 10389 10387 10384 10381 10377 10374 10371 10367 10364 10361 10358 10354 10351 10347 10343 10340 10336 10333 10330 10326 10323 10320 10317 10315 10313 10310 10308 10306 10304 10302 10300 10299 10297 10295 10293 10290 10288 10286 10283 10281 10278 10276 10274 10272 10270 10268 10266 10264 10263 10261 10259 10258 10256 10255 10253 10251 10250 10248 10246 10245 10244
10416 10415 10414 10414 10413 10412 10411 10410 10409 10408 10407 10406 10405 10404 10402 10400 10398 10396 10394 10392 10390 10388 10386 10384 10382 10380 10378 10375 10372 10368 10364 10361 10357 10354 10350 10347 10344 10340 10337 10333 10330 10327 10324 10321 10318 10315 10312 10309 10307 10305 10303 10301 10299 10297 10295 10293 10291 10290 10288 10286 10284 10282 10280 10277 10275 10272 10270 10268 10265 10263 10261 10259 10258 10256 10254 10252 10251 10249 10248 10246 10245 10243 10242 10240 10239
10409 10409 10409 10408 10407 10406 10406 10404 10403 10402 10401 10399 10398 10397 10395 10393 10391 10389 10387 10385 10383 10381 10379 10377 10375 10373 10371 10368 10365 10362 10359 10356 10352 10348 10345 10342 10339 10335 10331 10328 10324 10321 10318 10315 10313 10310 10307 10304 10301 10299 10296 10294 10293 10292 10290 10288 10286 10284 10282 10280 10279 10276 10274 10272 10271 10268 10266 10263 10260 10258 10256 10254 10252 10251 10249 10247 10245 10244 10242 10240 10238 10237 10236 10235 10233
10402 10402 10402 10402 10401 10400 10399 10398 10397 10395 10393 10392 10391 10389 10387 10385 10384 10382 10380 10378 10376 10374 10372 10369 10367 10365 10363 10361 10358 10355 10352 10350 10346 10343 10339 10336 10333 10329 10326 10322 10319 10316 10312 10309 10307 10304 10302 10299 10297 10294 10291 10288 10285 10284 10282 10281 10280 10279 10277 10276 10274 10271 10269 10266 10264 10263 10261 10258 10255 10252 10250 10248 10246 10245 10243 10242 10240 10238 10236 10234 10232 10230 10229 10227 10226
10395 10395 10395 10395 10394 10393 10391 10390 10389 10387 10386 10385 10384 10382 10380 10378 10376 10374 10372 10371 10369 10366 10364 10361 10359 10356 10354 10352 10349 10346 10344 10342 10338 10335 10331 10328 10325 10322 10319 10316 10313 10309 10306 10303 10301 10298 10296 10293 10291 10289 10286 10283 10280 10277 10275 10272 10270 10269 10268 10267 10266 10265 10263 10261 10259 10257 10255 10252 10249 10246 10244 10242 10240 10238 10237 10235 10234 10233 10231 10228 10226 10224 10222 10220 10219